Temp
33 33 33 33 34 35 36 37 36 38 40 39 39 37 33 29 27 29 36 35 35 34 34 33 33 32 31 30 29 28 28 28 26 25 25 25 26 26 27 27 28 26 26 25
33 32 34 35 35 35 36 36 37 39 40 39 39 38 33 27 25 28 32 25 35 35 35 34 33 32 32 30 29 28 27 27 26 26 25 26 27 27 27 27 27 27 26 25
32 33 34 35 35 35 35 35 37 38 40 39 38 37 38 33 34 27 23 34 36 36 35 34 33 33 32 30 29 28 27 27 26 26 26 26 27 27 27 27 27 27 26 26
33 35 34 34 34 35 34 36 37 38 39 37 39 36 38 39 39 32 37 38 37 37 36 35 34 33 32 31 29 28 27 26 26 26 26 26 26 27 27 28 28 27 27 26
33 33 34 34 34 36 35 37 37 37 38 38 38 38 38 39 39 40 39 40 38 38 37 36 35 33 33 31 30 28 26 26 26 25 26 26 26 27 28 28 28 28 27 26
34 36 36 36 36 37 37 37 37 37 37 36 37 37 37 39 39 40 40 40 39 39 38 37 35 34 33 32 30 29 27 26 25 25 26 26 26 27 27 28 28 28 27 27
34 34 36 38 36 37 36 36 34 34 34 34 37 37 38 40 40 41 41 40 41 39 38 37 35 35 33 33 31 30 27 26 25 25 25 26 26 27 27 28 28 28 28 27
32 32 35 37 37 36 36 36 34 32 33 34 37 36 38 40 42 42 42 41 41 41 39 37 36 35 33 33 32 31 28 26 25 25 25 24 25 26 27 27 28 28 29 29
34 33 36 37 37 37 36 35 37 36 37 36 37 37 39 40 41 42 42 42 42 41 40 38 37 36 34 33 32 31 29 26 26 25 25 25 24 25 26 27 27 28 29 29
34 33 36 37 37 37 37 37 35 36 33 34 37 37 37 38 40 41 41 42 42 42 41 40 38 36 35 33 32 31 30 27 26 26 25 25 25 25 26 27 27 27 28 29
33 34 35 37 36 35 36 37 36 36 36 35 36 38 42 39 39 40 41 41 42 42 41 40 39 38 36 34 33 32 31 28 27 26 26 26 25 25 25 26 27 27 28 28
33 33 33 35 38 38 37 36 37 35 34 36 37 39 41 42 41 41 41 42 42 42 41 41 40 38 37 35 34 33 32 31 28 27 27 26 26 26 25 25 26 27 27 27
25 30 31 32 36 37 36 36 37 37 37 35 36 37 40 40 41 41 41 41 40 40 41 40 40 39 37 36 35 34 33 32 31 28 27 27 26 26 26 26 26 27 26 27
24 27 30 33 34 37 35 36 37 37 36 36 37 37 38 39 39 40 40 40 41 39 40 40 40 39 38 37 36 35 34 33 32 31 29 28 27 26 26 26 26 26 27 26
27 26 30 33 35 37 36 36 36 36 37 36 38 38 38 38 39 39 40 40 40 40 41 40 41 39 37 37 35 35 35 34 34 32 31 29 28 27 27 27 27 26 26 27
24 26 28 29 32 34 35 36 36 37 37 38 38 39 39 39 39 39 38 38 38 38 38 39 39 39 39 37 36 35 35 35 34 33 32 30 29 28 27 27 27 27 26 26
22 24 25 26 30 32 33 34 36 36 38 38 37 38 39 37 37 37 37 38 38 38 38 38 38 38 38 38 37 35 35 35 35 33 32 31 30 29 28 27 27 27 27 26
20 22 24 26 28 27 32 35 35 36 38 39 39 39 40 39 38 37 37 37 37 38 38 38 39 39 38 38 39 37 36 34 34 34 33 32 30 29 28 27 27 27 27 27
22 22 23 25 27 29 32 33 34 34 35 37 38 39 37 37 37 37 37 37 37 37 37 37 38 39 39 38 38 38 37 35 33 32 32 32 31 30 29 28 27 27 27 27
23 23 22 24 25 27 31 34 35 35 32 35 35 35 36 36 34 34 34 34 34 34 33 33 34 34 34 33 38 37 35 34 33 32 32 32 31 30 29 28 27 27 27 27
21 21 22 23 24 28 27 31 34 30 27 29 30 32 34 33 31 31 32 32 32 32 32 32 32 33 33 34 33 34 34 34 33 32 31 31 31 30 29 29 28 27 27 27
22 21 21 23 23 23 28 29 26 26 26 27 27 27 27 28 29 29 30 30 30 30 30 31 32 32 33 33 33 32 32 34 34 34 32 30 30 29 30 28 28 27 27 26
20 20 22 23 24 27 26 26 27 27 26 26 25 26 26 26 27 27 28 29 29 29 29 29 29 31 32 32 33 32 33 32 32 33 32 31 30 29 29 28 27 27 27 27
21 23 22 22 23 24 25 26 26 26 25 25 26 25 25 25 26 26 27 27 27 28 28 27 27 29 31 32 32 32 30 30 30 31 31 30 29 28 28 29 28 27 27 27
19 20 20 20 22 23 23 24 24 24 24 24 24 25 25 25 25 25 25 25 25 26 26 26 26 28 29 29 30 29 29 29 29 30 30 30 29 28 28 27 27 28 27 27
18 18 17 18 19 19 20 23 24 24 24 24 24 24 25 25 24 24 24 24 24 25 24 24 26 27 27 27 26 26 27 29 29 29 29 30 30 28 29 22 21 23 22 23
Height
693 706 705 698 696 698 696 698 705 686 672 683 689 694 708 723 733 732 707 718 726 727 735 744 753 761 769 777 785 791 798 804 808 814 819 822 824 826 829 831 833 833 835 838
699 696 687 687 691 696 696 698 694 680 665 677 685 689 704 716 719 727 715 739 718 721 729 737 747 755 763 771 779 787 794 800 805 809 815 819 821 823 826 829 830 832 833 837
688 680 678 683 689 697 694 697 689 685 668 668 684 697 686 697 694 704 731 701 700 709 722 732 741 748 757 765 773 780 788 795 800 806 812 816 819 821 822 824 827 829 832 835
679 667 674 681 687 684 702 680 680 678 681 703 674 723 690 680 680 694 685 683 692 700 712 724 733 742 750 758 767 775 782 790 796 802 807 810 813 815 817 820 823 826 828 831
666 668 669 679 676 672 685 671 682 679 684 684 681 697 683 674 681 674 672 672 681 690 700 713 725 735 742 751 760 769 776 784 791 796 801 805 808 811 814 816 818 821 823 827
656 645 651 654 659 660 663 674 678 682 686 707 685 693 693 677 675 666 661 663 668 678 690 701 716 729 738 746 754 762 770 778 786 791 796 799 803 807 809 811 813 816 819 823
657 651 640 636 659 656 665 682 711 718 712 710 681 689 676 651 648 653 655 658 658 666 678 692 705 717 729 737 746 754 762 771 778 785 790 793 798 801 804 807 809 811 814 817
664 674 639 628 642 660 664 671 693 726 717 712 681 693 673 642 631 630 635 645 651 657 667 681 693 706 719 728 737 744 752 761 769 776 781 786 791 795 799 802 804 807 809 811
649 651 627 623 629 637 659 670 656 683 674 693 679 673 653 640 638 633 632 635 643 649 658 671 682 696 708 720 728 735 743 751 758 764 773 779 784 788 791 796 800 802 805 806
631 653 622 621 623 628 635 643 682 673 708 705 677 668 668 652 644 637 637 634 635 639 649 661 673 688 699 708 717 728 735 742 749 756 764 769 774 779 784 789 793 796 800 803
632 636 627 616 627 639 643 648 657 661 668 691 690 660 608 625 625 629 630 629 632 633 642 652 664 677 689 700 711 721 730 737 745 751 755 761 766 771 777 782 786 790 794 798
618 628 641 623 600 609 624 639 641 669 682 663 659 652 604 594 605 614 619 621 626 627 633 643 654 668 680 692 702 710 720 729 734 742 750 755 761 766 770 774 779 783 788 792
654 633 645 639 610 602 621 625 631 637 648 667 674 659 609 605 607 610 618 618 623 628 631 637 646 658 670 680 691 701 710 718 728 737 743 749 754 758 762 767 772 777 780 784
659 648 634 630 618 601 624 625 626 634 655 658 652 648 633 622 623 615 616 618 621 627 631 634 640 648 659 672 681 691 701 709 718 727 734 740 745 749 755 760 764 768 772 775
648 653 634 614 602 595 609 620 621 630 629 653 638 638 631 626 624 621 617 619 624 627 629 631 635 642 650 661 673 683 690 699 706 714 721 726 734 741 748 752 756 760 764 767
660 656 641 634 616 612 612 605 614 619 621 626 626 627 610 615 617 624 627 629 632 633 634 637 641 645 652 658 664 674 681 689 697 702 708 717 723 729 736 742 747 752 756 760
682 667 660 657 633 622 629 610 606 614 611 618 635 620 610 622 626 631 633 634 637 639 639 642 645 648 651 656 663 667 674 681 688 694 700 706 712 719 725 731 738 743 747 752
694 684 671 662 645 665 618 596 601 606 604 604 608 606 607 613 617 624 628 637 641 641 643 644 645 647 649 654 657 663 670 676 682 687 692 697 704 710 717 723 728 734 739 742
685 690 680 669 660 641 622 610 612 619 620 604 606 606 612 616 619 630 629 634 641 645 646 648 647 646 646 649 653 657 663 668 675 679 683 689 695 701 707 712 717 723 729 732
681 682 689 670 669 666 632 603 593 601 644 615 614 619 620 626 653 649 640 641 647 650 653 654 653 652 651 650 649 650 656 661 667 672 677 683 688 692 696 701 707 713 718 721
688 691 692 685 680 645 636 617 603 649 672 640 634 629 628 642 650 649 648 653 656 658 659 658 656 654 653 653 652 654 658 658 658 663 669 674 678 683 688 694 700 705 710 715
685 694 695 685 684 686 649 639 659 660 655 653 653 654 654 654 654 655 657 660 660 661 661 659 656 654 653 653 653 650 651 654 657 659 662 666 672 676 682 687 692 698 703 707
697 692 683 679 673 650 655 656 655 655 660 662 664 664 665 665 665 666 666 664 663 663 664 664 660 655 652 651 650 650 649 652 653 655 657 660 666 671 677 681 688 693 698 701
689 676 683 683 674 666 663 662 661 663 666 666 667 669 670 671 669 668 668 668 668 668 666 667 664 656 650 648 648 649 650 651 651 651 653 657 661 666 672 677 682 686 690 693
701 694 692 688 678 671 668 669 670 670 670 672 673 673 673 673 673 673 673 672 673 672 670 668 663 655 651 648 646 647 648 647 648 648 650 653 657 661 667 672 674 678 683 685
708 705 706 695 686 687 679 669 667 668 670 669 672 673 673 674 676 676 677 679 678 675 673 668 661 656 653 650 649 649 646 644 644 645 646 649 652 656 661 667 672 675 679 681
Wind_Speed
24 17 25 30 26 23 24 20 24 22 22 23 20 16 20 9 15 24 23 22 23 23 22 29 29 29 29 30 29 32 27 26 31 26 24 19 19 16 16 14 12 14 9 9
21 28 26 27 25 27 27 24 25 23 25 14 21 17 26 25 36 20 22 13 22 22 22 22 30 31 31 33 32 32 30 30 29 26 25 22 18 19 19 17 15 14 11 13
28 19 26 27 26 27 28 27 24 21 21 24 18 16 20 27 17 23 21 31 24 23 23 21 24 30 32 33 34 34 34 29 30 26 24 21 20 19 22 20 19 19 18 15
28 29 29 27 29 26 27 27 26 25 19 17 22 16 20 16 21 25 27 24 23 23 22 23 23 28 33 33 35 36 36 33 31 30 26 23 21 19 19 21 20 20 21 18
32 27 31 29 26 28 25 25 26 26 20 18 20 17 14 21 21 21 22 21 25 25 25 25 24 32 35 35 35 36 36 35 31 34 27 30 24 23 23 22 21 24 25 23
32 26 27 27 24 27 24 22 25 23 18 17 23 19 17 17 21 19 21 20 26 26 26 25 31 33 32 34 36 36 36 36 34 33 39 26 30 24 23 23 21 21 20 25
28 33 29 26 25 26 21 22 14 15 17 17 22 20 13 19 24 23 22 22 21 26 25 24 25 24 33 34 36 36 37 35 36 33 34 39 24 34 27 22 28 21 22 25
23 26 35 21 28 25 28 26 15 22 18 17 22 23 20 21 19 27 24 23 21 22 24 26 25 25 34 35 38 38 39 39 38 39 36 36 36 25 34 29 20 27 22 24
23 30 26 29 25 25 26 26 24 22 20 16 19 20 23 24 23 19 14 22 23 22 24 26 26 30 35 36 38 40 40 41 41 41 37 35 36 34 29 33 27 20 26 21
31 17 32 33 26 29 28 22 21 17 21 20 19 23 19 22 22 22 18 16 20 22 23 24 24 27 35 40 42 41 39 42 42 41 40 39 37 40 37 29 36 30 23 24
31 26 23 29 33 27 22 21 25 20 16 15 14 14 15 25 25 21 22 17 16 20 23 22 23 30 37 39 38 39 39 38 38 40 40 39 39 36 37 35 33 37 32 31
19 22 22 25 28 32 29 28 25 12 21 15 14 5 12 5 23 20 17 21 19 17 23 21 22 24 30 34 37 40 39 37 41 40 38 38 35 36 37 38 36 34 33 33
12 14 20 26 23 31 31 30 29 22 19 20 14 7 5 11 12 18 18 14 18 13 13 21 22 22 21 32 35 37 39 41 37 36 36 35 37 37 37 37 39 36 37 35
7 8 20 20 21 19 29 30 29 28 17 17 17 7 7 7 4 3 11 14 13 15 15 20 20 21 21 31 34 35 39 39 39 37 37 36 36 38 37 37 37 39 38 38
10 13 18 27 24 22 27 27 30 30 21 22 18 18 13 11 10 5 7 12 15 15 13 10 16 20 20 26 33 34 34 38 38 40 39 40 39 36 37 36 37 37 39 39
18 9 11 17 22 20 17 31 30 29 29 23 25 17 17 15 12 9 11 10 10 9 8 7 4 3 4 19 24 34 34 34 37 37 39 39 39 39 38 38 38 37 37 38
13 10 7 16 18 22 19 15 27 26 26 24 20 15 19 20 18 12 10 7 7 4 4 6 5 4 2 7 22 27 33 33 31 34 33 37 39 37 38 38 37 37 37 36
12 12 9 9 12 18 10 12 16 14 25 24 19 15 11 17 17 14 9 5 2 1 3 4 5 7 13 14 16 23 25 30 31 27 30 31 34 36 35 36 36 36 36 36
11 10 7 5 8 7 12 14 18 11 9 5 18 18 9 11 10 11 9 7 6 6 4 6 11 13 12 20 26 25 25 27 27 28 30 30 31 33 34 36 36 36 35 35
11 10 8 9 7 12 9 16 5 12 12 9 4 2 7 6 6 7 12 12 12 12 10 10 14 16 15 23 8 19 26 23 26 30 30 29 33 32 34 36 35 34 36 36
11 8 10 9 6 4 11 16 4 10 5 16 19 12 2 5 9 10 10 11 9 9 11 13 12 12 14 17 21 8 3 16 29 31 29 32 34 35 33 33 33 33 33 31
9 12 11 12 13 11 18 10 6 7 11 15 17 18 16 14 13 13 12 10 10 10 12 16 13 12 15 17 20 18 10 17 13 25 27 29 30 31 29 32 30 31 31 31
5 6 6 8 12 10 14 14 14 11 8 10 11 13 11 12 12 12 11 12 11 12 11 19 19 16 16 22 10 11 19 14 10 15 24 27 28 27 28 28 27 26 28 27
15 13 8 11 16 16 12 12 12 11 10 9 10 10 12 11 14 14 12 11 11 12 12 19 23 21 14 8 13 12 10 12 13 17 20 22 23 24 25 20 25 24 25 25
13 18 16 17 17 15 19 17 16 16 14 13 13 14 13 14 14 12 12 14 14 14 15 22 24 17 18 11 7 5 11 15 16 16 17 18 20 24 22 18 18 25 21 22
15 18 14 16 22 19 19 18 17 17 19 17 16 16 15 13 13 13 11 11 13 15 15 23 24 17 22 7 9 11 12 10 13 14 15 18 19 21 21 18 10 9 10 7
Wind_Direction
207 209 214 215 222 224 235 225 222 227 235 208 224 180 162 148 322 272 170 173 184 179 184 177 190 183 177 176 177 179 186 192 175 179 191 209 209 207 216 232 220 188 189 216
205 222 215 220 215 227 230 240 227 230 221 205 228 214 171 160 192 242 153 207 181 176 178 180 185 182 185 179 180 180 188 191 182 183 190 203 204 210 211 221 224 210 216 217
214 213 222 217 219 220 225 231 243 226 243 185 217 239 205 190 171 133 254 194 173 174 179 181 180 186 185 181 181 182 187 191 189 188 193 199 210 217 208 212 219 211 215 225
217 227 200 216 219 217 222 226 242 254 228 224 195 214 213 223 218 177 205 173 173 177 179 183 183 189 185 186 184 184 186 192 192 191 194 199 204 207 220 207 215 213 217 210
213 215 221 208 217 216 226 217 228 248 257 248 229 229 211 211 221 205 180 185 176 182 181 183 187 189 191 186 184 185 186 191 194 196 199 199 202 213 212 221 214 217 210 208
227 213 226 220 213 218 218 226 215 231 245 245 242 216 225 226 211 219 190 199 181 178 180 182 184 186 194 188 185 186 187 191 194 196 203 205 204 206 217 211 222 209 199 205
215 227 219 221 203 212 209 214 212 210 217 232 234 244 242 224 195 203 201 194 193 174 177 179 178 184 186 190 188 187 185 189 194 199 202 210 212 209 219 220 215 205 203 200
212 213 221 205 212 202 209 212 216 212 211 217 238 228 231 252 262 196 199 182 195 182 173 177 178 181 185 192 188 186 186 189 193 198 203 207 211 209 216 224 218 218 214 211
209 225 202 225 211 215 203 216 216 228 223 223 218 225 252 226 245 249 219 188 185 184 172 176 175 180 182 188 191 191 189 190 192 196 201 204 208 209 210 217 225 226 223 232
240 226 227 203 206 220 220 198 216 229 235 228 223 218 215 218 218 222 222 209 194 181 175 175 175 179 184 188 192 193 193 191 194 196 199 204 206 207 211 214 216 227 226 223
238 248 232 224 206 206 210 212 209 228 233 238 251 229 210 200 202 206 208 209 226 189 175 177 176 178 186 189 188 194 196 193 195 198 201 204 207 207 208 211 216 217 226 227
240 233 244 246 210 208 210 216 207 220 213 243 265 277 10 230 178 200 206 202 201 219 172 176 176 178 182 183 189 193 196 199 199 201 203 207 207 209 209 211 214 214 214 223
350 237 229 243 237 192 213 208 221 211 227 222 239 230 70 47 146 182 191 219 182 200 191 174 177 178 182 184 189 193 194 201 204 202 205 208 210 210 212 213 214 215 215 215
290 259 246 227 229 208 194 213 209 225 208 225 217 156 148 114 132 167 161 191 191 186 217 176 181 183 177 187 189 190 195 199 200 203 205 209 212 213 213 214 215 214 215 214
256 262 249 240 237 224 195 209 213 216 215 218 216 208 148 140 148 155 124 178 207 184 200 172 189 178 180 179 186 194 195 195 199 201 205 208 211 213 214 215 217 216 216 217
336 271 281 264 265 272 269 199 213 216 226 204 238 207 131 129 131 147 106 81 64 72 86 86 95 121 138 189 177 189 197 197 200 201 205 205 207 208 211 214 216 216 217 217
320 339 293 252 249 246 243 243 202 218 213 223 216 230 143 142 136 140 127 95 111 94 97 130 150 168 215 175 189 187 195 199 198 206 203 205 205 206 207 210 213 215 217 216
296 307 300 275 273 246 253 224 253 233 216 212 225 219 191 160 136 116 114 109 102 127 342 333 273 236 184 217 217 192 186 194 205 210 207 204 202 205 205 208 211 214 215 217
260 283 292 254 238 227 248 220 215 235 223 254 219 223 102 78 94 106 117 151 177 245 279 307 281 284 251 197 217 196 190 190 196 207 215 209 203 201 203 206 209 211 213 216
234 243 278 297 268 221 244 242 190 209 231 285 281 332 134 120 167 80 43 39 32 27 14 357 345 336 342 349 289 184 188 183 196 207 212 213 212 206 206 207 209 210 212 217
203 244 235 242 261 262 352 359 97 170 60 25 29 14 168 79 68 66 43 34 19 12 351 343 324 312 310 318 322 329 265 209 196 205 205 208 212 213 210 208 209 211 213 216
195 196 223 236 240 235 46 341 36 43 53 36 34 27 29 29 32 26 15 8 5 359 351 339 324 292 304 300 291 290 280 275 234 209 201 204 209 208 213 207 208 209 210 215
197 232 246 240 239 290 344 4 7 27 34 30 25 11 7 359 356 346 340 347 347 349 353 331 320 309 280 276 285 277 263 263 253 227 203 200 203 204 211 206 208 208 211 216
300 316 281 266 275 295 309 325 328 340 347 345 335 342 327 331 330 332 336 336 343 340 339 322 312 294 282 290 262 248 267 263 256 235 205 199 195 198 203 211 203 207 212 215
306 310 298 293 292 285 288 289 298 306 307 306 308 306 303 308 305 316 321 327 328 321 335 317 305 338 325 342 337 319 284 242 246 219 202 198 197 192 195 201 203 206 210 223
300 310 304 297 308 312 305 300 290 268 265 270 277 278 283 290 300 305 304 311 312 308 330 308 307 317 312 310 309 307 296 257 224 215 200 201 202 188 194 166 121 123 151 195